Weather History for KLWT - July, 2013

Change the Weather History Date:

Sunday, July 21, 2013

  Actual Average Record
Temperature  
Mean Temperature 68 °F 67 °F  
Max Temperature 84 °F 82 °F 101 °F (1931)
Min Temperature 51 °F 51 °F 33 °F (1926)
Degree Days  
Heating Degree Days 0 2  
Month to date heating degree days 10 59  
Since 1 June heating degree days 230 286  
Since 1 July heating degree days 10 59  
Cooling Degree Days 3 3  
Month to date cooling degree days 85 53  
Year to date cooling degree days 104 75  
Since 1 June cooling degree days 101 73  
Growing Degree Days 16 (Base 50)    
Moisture  
Dew Point 45 °F    
Average Humidity 51    
Maximum Humidity 77    
Minimum Humidity 25    
Precipitation  
Precipitation 0.00 in 0.06 in 1.45 in (1909)
Month to date precipitation 1.28 1.40  
Year to date precipitation 15.47 10.74  
Snow  
Snow 0.00 in - - ()
Snow Depth 0.00 in    
Sea Level Pressure  
Sea Level Pressure 29.80 in    
Wind  
Wind Speed 8 mph (NNE)    
Max Wind Speed 20 mph    
Max Gust Speed 25 mph    
Visibility 10 miles    
Events      
T = Trace of Precipitation, MM = Missing Value Source: NWS Daily Summary

Daily Weather History Graph

Daily Weather History Graph

Search for Another Location

Airport or City:

Trip Planner

Search our weather history database for the weather conditions in past years. The results will help you decide how hot, cold, wet, or windy it might be!

Date:

Astronomy

Jul. 21, 2013 Rise Set
Actual Time 5:44 AM MDT 9:03 PM MDT
Civil Twilight 5:07 AM MDT 9:40 PM MDT
Nautical Twilight 4:18 AM MDT 10:28 PM MDT
Astronomical Twilight 3:16 AM MDT 11:30 PM MDT
Moon 8:00 PM MDT (7/21) 4:35 AM MDT (7/21)
Length of Visible Light 16h 33m
Length of Day
15h 18m
Waxing Gibbous, 98% of the Moon is Illuminated
Jul 21
Waxing Gibbous
Jul 22
Full
Jul 29
Last Quarter
Aug 6
New
Aug 14
First Quarter

Hourly Weather History & Observations

Time (MDT) Temp. Dew Point Humidity Pressure Visibility Wind Dir Wind Speed Gust Speed Precip Events Conditions
12:54 AM 63.0 °F 48.9 °F 60% 29.78 in 10.0 mi ESE 4.6 mph - N/A   Clear
1:54 AM 57.0 °F 48.0 °F 72% 29.77 in 10.0 mi Calm Calm - N/A   Clear
2:54 AM 54.0 °F 46.0 °F 75% 29.75 in 10.0 mi Calm Calm - N/A   Clear
3:54 AM 55.0 °F 45.0 °F 69% 29.74 in 10.0 mi South 5.8 mph - N/A   Clear
4:54 AM 53.1 °F 44.1 °F 71% 29.75 in 10.0 mi SSE 5.8 mph - N/A   Clear
5:54 AM 51.1 °F 44.1 °F 77% 29.77 in 10.0 mi ESE 3.5 mph - N/A   Clear
6:54 AM 54.0 °F 45.0 °F 72% 29.78 in 10.0 mi SSE 4.6 mph - N/A   Clear
7:54 AM 68.0 °F 44.1 °F 42% 29.78 in 10.0 mi WSW 8.1 mph - N/A   Clear
8:54 AM 71.1 °F 41.0 °F 34% 29.78 in 10.0 mi WNW 5.8 mph - N/A   Clear
9:54 AM 77.0 °F 39.0 °F 25% 29.79 in 10.0 mi NW 9.2 mph 19.6 mph N/A   Clear
10:54 AM 79.0 °F 39.0 °F 24% 29.78 in 10.0 mi NNW 13.8 mph 20.7 mph N/A   Clear
11:54 AM 79.0 °F 44.1 °F 29% 29.81 in 10.0 mi NW 13.8 mph 23.0 mph N/A   Clear
12:54 PM 80.1 °F 48.0 °F 32% 29.81 in 10.0 mi NW 12.7 mph 19.6 mph N/A   Clear
1:54 PM 81.0 °F 46.9 °F 30% 29.82 in 10.0 mi NW 13.8 mph 19.6 mph N/A   Clear
2:54 PM 82.0 °F 44.1 °F 26% 29.83 in 10.0 mi NW 8.1 mph 19.6 mph N/A   Clear
3:54 PM 82.9 °F 45.0 °F 26% 29.82 in 10.0 mi NNW 10.4 mph 16.1 mph N/A   Clear
4:54 PM 82.9 °F 45.0 °F 26% 29.82 in 10.0 mi North 8.1 mph - N/A   Clear
5:54 PM 82.9 °F 45.0 °F 26% 29.82 in 10.0 mi North 5.8 mph - N/A   Clear
6:54 PM 81.0 °F 46.0 °F 29% 29.81 in 10.0 mi NE 8.1 mph - N/A   Clear
7:54 PM 77.0 °F 48.0 °F 36% 29.79 in 10.0 mi NNE 6.9 mph - N/A   Clear
8:54 PM 73.0 °F 48.0 °F 41% 29.81 in 10.0 mi ESE 4.6 mph - N/A   Clear
9:54 PM 68.0 °F 46.9 °F 47% 29.82 in 10.0 mi ESE 9.2 mph - N/A   Clear
10:54 PM 66.0 °F 50.0 °F 56% 29.83 in 10.0 mi ESE 11.5 mph - N/A   Clear
11:54 PM 64.0 °F 48.9 °F 58% 29.83 in 10.0 mi ESE 11.5 mph - N/A   Clear